CDT,Max TemperatureF,Mean TemperatureF,Min TemperatureF,Max Dew PointF,MeanDew PointF,Min DewpointF,Max Humidity, Mean Humidity, Min Humidity, Max Sea Level PressureIn, Mean Sea Level PressureIn, Min Sea Level PressureIn, Max VisibilityMiles, Mean VisibilityMiles, Min VisibilityMiles, Max Wind SpeedMPH, Mean Wind SpeedMPH, Max Gust SpeedMPH,PrecipitationIn, CloudCover, Events, WindDirDegrees
2012-8-1,99,82,66,66,60,52,84,50,21,29.94,29.89,29.81,10,10,9,10,4,,0.00,0,,93
2012-8-2,95,82,70,74,67,58,94,72,39,29.85,29.79,29.74,10,7,0,21,8,29,0.96,3,Fog-Rain-Thunderstorm,147
2012-8-3,93,81,71,73,71,70,100,83,48,29.86,29.82,29.78,10,5,0,9,5,,0.00,3,Fog,124
2012-8-4,93,84,75,74,72,67,94,71,50,29.97,29.83,29.78,10,9,3,14,8,23,0.00,0,Rain,98
2012-8-5,88,76,66,67,59,53,87,57,32,30.15,30.09,29.97,10,10,10,14,7,24,0.00,1,,340
2012-8-6,91,74,57,58,53,44,90,51,20,30.17,30.09,29.99,10,10,10,7,4,,0.00,0,,57
2012-8-7,98,82,66,62,56,52,73,43,22,30.00,29.95,29.90,10,10,10,9,5,,0.00,0,,165
2012-8-8,82,76,70,68,63,57,87,64,47,29.99,29.93,29.86,10,10,10,16,7,17,0.00,2,Rain,137
2012-8-9,90,76,66,67,64,60,90,67,43,29.92,29.86,29.81,10,10,10,20,8,26,0.02,2,Rain,312
2012-8-10,80,69,60,61,56,50,94,74,40,30.02,29.97,29.89,10,10,6,16,10,23,0.00,5,,360
2012-8-11,82,68,55,55,49,45,86,52,27,30.05,30.01,29.97,10,10,10,10,4,,0.00,0,,19
2012-8-12,78,70,62,63,56,46,88,64,50,30.01,29.94,29.84,10,10,7,20,7,29,0.09,5,Rain-Thunderstorm,130
2012-8-13,73,66,61,61,60,58,90,77,66,30.01,29.92,29.83,10,10,9,16,10,21,0.00,5,,360
2012-8-14,82,70,57,59,57,54,100,69,38,30.02,29.97,29.92,10,8,2,9,4,,0.01,1,,281
2012-8-15,91,74,57,59,57,54,90,58,30,29.98,29.91,29.83,10,10,7,13,6,20,0.00,0,,188
2012-8-16,86,74,64,66,61,55,73,60,50,30.01,29.89,29.81,10,10,10,22,11,29,0.00,2,Rain-Thunderstorm,273
2012-8-17,80,66,53,53,47,40,89,55,24,30.07,30.03,29.99,10,10,9,10,6,17,0.00,0,,353
2012-8-18,82,66,51,50,45,38,77,49,23,30.04,29.98,29.91,10,10,10,10,2,,0.00,0,,23
2012-8-19,82,70,59,53,48,41,72,49,25,30.00,29.96,29.92,10,10,10,13,5,20,0.00,3,,360
2012-8-20,84,68,54,54,49,45,86,53,27,30.01,29.97,29.93,10,10,9,13,3,24,0.00,1,,336
2012-8-21,88,73,59,53,46,37,78,43,18,30.05,30.03,29.99,10,10,10,9,4,,0.00,2,,52
2012-8-22,96,75,57,54,50,46,72,42,21,30.06,30.02,29.96,10,10,10,9,7,,0.00,1,,138
2012-8-23,97,81,66,54,51,46,59,35,18,30.06,29.99,29.94,10,10,10,10,7,16,0.00,1,,189
2012-8-24,96,82,71,56,52,48,55,38,21,30.01,29.96,29.92,10,10,10,16,8,25,0.00,0,,175
2012-8-25,91,78,66,69,60,54,85,57,30,30.00,29.95,29.90,10,10,8,16,9,25,0.02,2,Rain,161
2012-8-26,80,75,71,73,71,66,100,93,78,30.01,29.97,29.93,10,5,0,13,6,,2.34,7,Fog-Rain-Thunderstorm,197
2012-8-27,90,79,68,70,66,58,96,78,35,30.13,30.06,29.99,10,8,1,12,7,,0.01,4,,5
2012-8-28,91,78,66,64,60,55,87,55,29,30.14,30.07,29.99,10,10,10,8,2,,0.00,0,,54
2012-8-29,91,80,68,63,59,56,75,52,33,30.06,30.00,29.94,10,10,10,8,5,,0.00,0,,154
2012-8-30,95,80,66,63,59,54,81,51,26,30.02,29.97,29.92,10,10,10,9,6,,0.00,0,,158
2012-8-31,78,74,70,73,70,58,94,88,50,30.05,29.96,29.89,10,6,1,20,9,28,0.75,6,Rain,93